Weather in Porosozero

Russia / Republic of Karelia     62°43′08″N   32°43′55″E
temp.,
°C
wind,
m/s
gust,
m/s
humid.,
%
clouds,
%
prec.,
mm/h
press.,
hPa
HPBL,
m
1 august, sun
sun100:00+12wsw23965 0.0 99953
03:00+11sw23975 0.0 100054
06:00+12sw25935 0.0 1000148
09:00+18ssw346442 0.0 1000561
12:00+21ssw345173 0.0 10001285
15:00+16ssw5989100 1.8 1000699
18:00+16sw3990100 1.1 1000489
21:00+14ssw229587 1.3 99955
2 august, mon
mon200:00+13ssw28975 0.3 1000184
03:00+12ssw28971 0.3 1000167
06:00+13ssw39965 0.0 1001276
09:00+17sw4785100 0.0 1002676
12:00+15sw3788100 0.2 1003718
15:00+19wsw356397 0.3 10021138
18:00+20ssw3552100 0.0 10011321
21:00+16sw2277100 0.1 100158
3 august, tue
tue300:00+14w1183100 0.0 100010
03:00+13ese1195100 1.1 100013
06:00+13nnw1198100 1.3 99826
09:00+15w2388100 1.6 997224
12:00+18wsw357874 1.7 997835
15:00+20wnw485643 3.1 9981661
18:00+19w475510 0.1 9991624
21:00+13w59770 0.1 1002736
4 august, wed
wed400:00+11w4986100 0.0 1003722
03:00+10wnw5986100 0.0 1005923
06:00+9wnw5108557 0.0 1008691
09:00+11wnw587065 0.1 1010957
12:00+14nnw595343 0.0 10121532
15:00+17nw473744 0.0 10132354
18:00+17wnw353666 0.0 10142189
21:00+12wsw116473 0.0 101621
5 august, thu
thu500:00+10sse257769 0.0 1017112
03:00+10s267792 0.1 1017135
06:00+11s21071100 0.0 1017291
09:00+15s485298 0.0 1016491
12:00+19ssw344497 0.0 10161722
15:00+19wsw244388 0.0 10161921
18:00+17sw235442 0.0 1016103
21:00+15s1165100 0.0 101614